User: anonymous   Login
Location: Newark
(41.6500°N, 71.4833°W)
Time: 13:51:52
(UTC+00:00)
Language:

Tiros 1 - Orbit

View from above orbital plane
View from above orbital plane
View from above satellite
View from above satellite

Ground track
Ground track

The orbit data is extracted from the following two-line orbital elements,

1    29U 60002B   20023.41773831 -.00000130  00000-0  11589-4 0  9993
2    29  48.3795 277.7986 0024436 327.0069  32.9317 14.74338096197110
Epoch (UTC): 23 January 2020 10:01:32
Eccentricity: 0.0024436
inclination: 48.3795°
perigee height: 630 km
apogee height: 664 km
right ascension of ascending node: 277.7986°
argument of perigee: 327.0069°
revolutions per day: 14.74338096
mean anomaly at epoch: 32.9317°
orbit number at epoch: 19711

The dashed part of the orbit path shows where the satellite is in the earth's shadow,  

DLR